| time (UTC) | temp C | wind direction | speed KPH | gust KPH | rain 1hr cm | rain 24hr cm | rain mn cm | humidity % | barometer mb |
| 20260507222333 | 13 | 10 | 8.0 | 0.0 | 0.00 | 0.00 | 0.00 | 86 | 1013.0 |
| 20260507221832 | 13 | 10 | 8.0 | 0.0 | 0.00 | 0.00 | 0.00 | 86 | 1013.0 |
| 20260507221331 | 13 | 10 | 8.0 | 0.0 | 0.00 | 0.00 | 0.00 | 86 | 1013.0 |
| 20260507220830 | 13 | 10 | 8.0 | 0.0 | 0.00 | 0.00 | 0.00 | 86 | 1013.0 |
| 20260507220329 | 13 | 10 | 8.0 | 0.0 | 0.00 | 0.00 | 0.00 | 86 | 1013.0 |
| 20260507215828 | 13 | 10 | 8.0 | 0.0 | 0.00 | 0.00 | 0.00 | 86 | 1013.0 |
| 20260507215328 | 13 | 10 | 8.0 | 0.0 | 0.00 | 0.00 | 0.00 | 86 | 1013.0 |
| 20260507214827 | 14 | 10 | 8.0 | 0.0 | 0.00 | 0.00 | 0.00 | 86 | 1013.0 |
| 20260507214326 | 14 | 10 | 8.0 | 0.0 | 0.00 | 0.00 | 0.00 | 86 | 1013.0 |
| 20260507213825 | 14 | 10 | 8.0 | 0.0 | 0.00 | 0.00 | 0.00 | 86 | 1013.0 |
| 20260507213324 | 15 | 10 | 8.0 | 0.0 | 0.00 | 0.00 | 0.00 | 85 | 1013.0 |
| 20260507212823 | 15 | 10 | 8.0 | 0.0 | 0.00 | 0.00 | 0.00 | 85 | 1013.0 |
| 20260507212322 | 15 | 10 | 8.0 | 0.0 | 0.00 | 0.00 | 0.00 | 85 | 1013.0 |
| 20260507211821 | 15 | 10 | 8.0 | 0.0 | 0.00 | 0.00 | 0.00 | 85 | 1013.0 |
| 20260507211321 | 15 | 10 | 8.0 | 0.0 | 0.00 | 0.00 | 0.00 | 85 | 1013.0 |
| 20260507210820 | 15 | 10 | 8.0 | 0.0 | 0.00 | 0.00 | 0.00 | 84 | 1013.0 |
| 20260507210319 | 15 | 10 | 8.0 | 0.0 | 0.00 | 0.00 | 0.00 | 84 | 1013.0 |
| 20260507205818 | 15 | 10 | 8.0 | 0.0 | 0.00 | 0.00 | 0.00 | 84 | 1013.0 |
| 20260507205317 | 15 | 10 | 8.0 | 0.0 | 0.00 | 0.00 | 0.00 | 84 | 1013.0 |
| 20260507204816 | 15 | 10 | 8.0 | 0.0 | 0.00 | 0.00 | 0.00 | 84 | 1013.0 |
| 20260507204315 | 15 | 10 | 8.0 | 0.0 | 0.00 | 0.00 | 0.00 | 84 | 1013.0 |
| 20260507203814 | 15 | 10 | 8.0 | 0.0 | 0.00 | 0.00 | 0.00 | 83 | 1013.0 |
| 20260507203313 | 15 | 10 | 8.0 | 0.0 | 0.00 | 0.00 | 0.00 | 83 | 1013.0 |
| 20260507202813 | 15 | 10 | 8.0 | 0.0 | 0.00 | 0.00 | 0.00 | 83 | 1013.0 |
| 20260507202312 | 15 | 10 | 8.0 | 0.0 | 0.00 | 0.00 | 0.00 | 83 | 1013.0 |
| 20260507201811 | 15 | 10 | 8.0 | 0.0 | 0.00 | 0.00 | 0.00 | 83 | 1013.0 |
| 20260507201310 | 15 | 10 | 8.0 | 0.0 | 0.00 | 0.00 | 0.00 | 83 | 1013.0 |
| 20260507200809 | 15 | 10 | 8.0 | 0.0 | 0.00 | 0.00 | 0.00 | 83 | 1013.0 |
| 20260507200308 | 15 | 10 | 8.0 | 0.0 | 0.00 | 0.00 | 0.00 | 83 | 1012.0 |
| 20260507195807 | 15 | 10 | 8.0 | 0.0 | 0.00 | 0.00 | 0.00 | 83 | 1012.0 |
| 20260507195306 | 15 | 10 | 8.0 | 0.0 | 0.00 | 0.00 | 0.00 | 83 | 1012.0 |
| 20260507194805 | 15 | 10 | 8.0 | 0.0 | 0.00 | 0.00 | 0.00 | 83 | 1012.0 |
| 20260507194305 | 16 | 10 | 8.0 | 0.0 | 0.00 | 0.00 | 0.00 | 83 | 1012.0 |
| 20260507193804 | 16 | 10 | 8.0 | 0.0 | 0.00 | 0.00 | 0.00 | 83 | 1012.0 |
| 20260507193303 | 16 | 10 | 8.0 | 0.0 | 0.00 | 0.00 | 0.00 | 83 | 1012.0 |
| 20260507192802 | 16 | 10 | 8.0 | 0.0 | 0.00 | 0.00 | 0.00 | 82 | 1012.0 |
| 20260507192301 | 16 | 10 | 8.0 | 0.0 | 0.00 | 0.00 | 0.00 | 82 | 1012.0 |
| 20260507191800 | 16 | 10 | 8.0 | 0.0 | 0.00 | 0.00 | 0.00 | 81 | 1012.0 |
| 20260507191259 | 16 | 10 | 8.0 | 0.0 | 0.00 | 0.00 | 0.00 | 81 | 1012.0 |
| 20260507190758 | 16 | 10 | 9.7 | 0.0 | 0.00 | 0.00 | 0.00 | 77 | 1011.0 |
| 20260507190257 | 16 | 10 | 9.7 | 0.0 | 0.00 | 0.00 | 0.00 | 77 | 1011.0 |
| 20260507185757 | 16 | 10 | 9.7 | 0.0 | 0.00 | 0.00 | 0.00 | 76 | 1011.0 |
| 20260507185256 | 16 | 10 | 9.7 | 0.0 | 0.00 | 0.00 | 0.00 | 76 | 1011.0 |
| 20260507184755 | 16 | 10 | 9.7 | 0.0 | 0.00 | 0.00 | 0.00 | 75 | 1011.0 |
| 20260507184254 | 16 | 10 | 9.7 | 0.0 | 0.00 | 0.00 | 0.00 | 75 | 1011.0 |
| 20260507183753 | 16 | 10 | 9.7 | 0.0 | 0.00 | 0.00 | 0.00 | 75 | 1011.0 |
| 20260507183252 | 16 | 10 | 9.7 | 0.0 | 0.00 | 0.00 | 0.00 | 75 | 1011.0 |
| 20260507182250 | 16 | 10 | 9.7 | 0.0 | 0.00 | 0.00 | 0.00 | 71 | 1011.0 |
| 20260507181749 | 17 | 301 | 8.0 | 17.7 | 0.00 | 0.00 | 0.00 | 72 | 1011.0 |
| 20260507181248 | 17 | 301 | 8.0 | 17.7 | 0.00 | 0.00 | 0.00 | 72 | 1011.0 |
| 20260507180748 | 17 | 301 | 8.0 | 17.7 | 0.00 | 0.00 | 0.00 | 72 | 1011.0 |
| 20260507180247 | 17 | 301 | 8.0 | 17.7 | 0.00 | 0.00 | 0.00 | 72 | 1011.0 |
| 20260507175746 | 17 | 301 | 8.0 | 17.7 | 0.00 | 0.00 | 0.00 | 73 | 1011.0 |
| 20260507175245 | 17 | 301 | 8.0 | 17.7 | 0.00 | 0.00 | 0.00 | 73 | 1011.0 |
| 20260507174744 | 17 | 301 | 8.0 | 17.7 | 0.00 | 0.00 | 0.00 | 74 | 1011.0 |
| 20260507174243 | 17 | 301 | 8.0 | 17.7 | 0.00 | 0.00 | 0.00 | 74 | 1011.0 |
| 20260507173742 | 17 | 301 | 8.0 | 17.7 | 0.00 | 0.00 | 0.00 | 72 | 1011.0 |
| 20260507173241 | 17 | 333 | 8.0 | 17.7 | 0.00 | 0.00 | 0.00 | 71 | 1011.0 |
| 20260507172740 | 17 | 333 | 8.0 | 17.7 | 0.00 | 0.00 | 0.00 | 71 | 1011.0 |
| 20260507172239 | 17 | 333 | 8.0 | 17.7 | 0.00 | 0.00 | 0.00 | 73 | 1011.0 |
| 20260507171739 | 17 | 333 | 8.0 | 17.7 | 0.00 | 0.00 | 0.00 | 73 | 1011.0 |
| 20260507171238 | 17 | 333 | 8.0 | 17.7 | 0.00 | 0.00 | 0.00 | 74 | 1011.0 |
| 20260507170737 | 17 | 333 | 8.0 | 17.7 | 0.00 | 0.00 | 0.00 | 76 | 1010.0 |
| 20260507170236 | 17 | 333 | 8.0 | 17.7 | 0.00 | 0.00 | 0.00 | 76 | 1010.0 |
| 20260507165735 | 17 | 320 | 6.4 | 0.0 | 0.00 | 0.00 | 0.00 | 76 | 1010.0 |
| 20260507165234 | 17 | 320 | 6.4 | 0.0 | 0.00 | 0.00 | 0.00 | 76 | 1010.0 |
| 20260507164733 | 17 | 350 | 8.0 | 16.1 | 0.00 | 0.00 | 0.00 | 76 | 1010.0 |
| 20260507164232 | 17 | 350 | 8.0 | 16.1 | 0.00 | 0.00 | 0.00 | 76 | 1010.0 |
| 20260507163731 | 17 | 350 | 12.9 | 0.0 | 0.00 | 0.00 | 0.00 | 75 | 1011.0 |
| 20260507163231 | 17 | 350 | 12.9 | 0.0 | 0.00 | 0.00 | 0.00 | 75 | 1011.0 |
| 20260507162730 | 17 | 350 | 12.9 | 0.0 | 0.00 | 0.00 | 0.00 | 75 | 1011.0 |
| 20260507162229 | 17 | 350 | 12.9 | 0.0 | 0.00 | 0.00 | 0.00 | 75 | 1011.0 |
| 20260507161728 | 17 | 308 | 4.8 | 12.9 | 0.00 | 0.00 | 0.00 | 76 | 1011.0 |
| 20260507161227 | 17 | 308 | 4.8 | 12.9 | 0.00 | 0.00 | 0.00 | 76 | 1011.0 |
| 20260507160726 | 17 | 308 | 4.8 | 12.9 | 0.00 | 0.00 | 0.00 | 76 | 1010.0 |
| 20260507160225 | 17 | 308 | 4.8 | 12.9 | 0.00 | 0.00 | 0.00 | 76 | 1010.0 |
| 20260507155724 | 17 | 106 | 19.3 | 16.1 | 0.00 | 0.00 | 0.00 | 79 | 1010.0 |
| 20260507155223 | 17 | 106 | 19.3 | 16.1 | 0.00 | 0.00 | 0.00 | 79 | 1010.0 |
| 20260507154723 | 17 | 320 | 14.5 | 0.0 | 0.00 | 0.00 | 0.00 | 77 | 1010.0 |
| 20260507154222 | 17 | 320 | 14.5 | 0.0 | 0.00 | 0.00 | 0.00 | 77 | 1010.0 |
| 20260507153721 | 17 | 320 | 14.5 | 0.0 | 0.00 | 0.00 | 0.00 | 77 | 1010.0 |
| 20260507153220 | 17 | 320 | 14.5 | 0.0 | 0.00 | 0.00 | 0.00 | 77 | 1011.0 |
| 20260507152719 | 17 | 320 | 14.5 | 0.0 | 0.00 | 0.00 | 0.00 | 77 | 1011.0 |
| 20260507152218 | 17 | 320 | 14.5 | 0.0 | 0.00 | 0.00 | 0.00 | 79 | 1011.0 |
| 20260507151717 | 17 | 320 | 14.5 | 0.0 | 0.00 | 0.00 | 0.00 | 79 | 1011.0 |
| 20260507151216 | 17 | 320 | 14.5 | 0.0 | 0.00 | 0.00 | 0.00 | 79 | 1011.0 |
| 20260507150715 | 17 | 310 | 14.5 | 0.0 | 0.00 | 0.00 | 0.00 | 84 | 1010.0 |
| 20260507150215 | 17 | 310 | 14.5 | 0.0 | 0.00 | 0.00 | 0.00 | 84 | 1010.0 |
| 20260507145714 | 17 | 310 | 14.5 | 0.0 | 0.00 | 0.00 | 0.00 | 84 | 1010.0 |
| 20260507145213 | 17 | 310 | 14.5 | 0.0 | 0.00 | 0.00 | 0.00 | 84 | 1010.0 |
| 20260507144712 | 17 | 320 | 9.7 | 0.0 | 0.00 | 0.00 | 0.00 | 84 | 1010.0 |
| 20260507144211 | 17 | 320 | 9.7 | 0.0 | 0.00 | 0.00 | 0.00 | 84 | 1010.0 |
| 20260507143710 | 17 | 320 | 9.7 | 0.0 | 0.00 | 0.00 | 0.00 | 84 | 1010.0 |
| 20260507143209 | 17 | 320 | 9.7 | 0.0 | 0.00 | 0.00 | 0.00 | 84 | 1010.0 |
| 20260507142708 | 17 | 320 | 9.7 | 0.0 | 0.00 | 0.00 | 0.00 | 84 | 1010.0 |
| 20260507142207 | 17 | 320 | 9.7 | 0.0 | 0.00 | 0.00 | 0.00 | 84 | 1010.0 |
| 20260507141707 | 17 | 320 | 9.7 | 0.0 | 0.00 | 0.00 | 0.00 | 83 | 1011.0 |
| 20260507141206 | 17 | 320 | 9.7 | 0.0 | 0.00 | 0.00 | 0.00 | 83 | 1011.0 |
| 20260507140705 | 17 | 288 | 4.8 | 12.9 | 0.00 | 0.00 | 0.00 | 82 | 1011.0 |
| 20260507140204 | 17 | 174 | 1.6 | 11.3 | 0.00 | 0.00 | 0.00 | 81 | 1010.0 |
| 20260507135703 | 17 | 174 | 1.6 | 11.3 | 0.00 | 0.00 | 0.00 | 81 | 1010.0 |
| 20260507135202 | 17 | 250 | 1.6 | 8.0 | 0.00 | 0.00 | 0.00 | 82 | 1010.0 |
| 20260507134701 | 17 | 250 | 1.6 | 8.0 | 0.00 | 0.00 | 0.00 | 82 | 1010.0 |
| 20260507134200 | 17 | 300 | 8.0 | 0.0 | 0.00 | 0.00 | 0.00 | 84 | 1010.0 |
| 20260507133659 | 17 | 300 | 8.0 | 0.0 | 0.00 | 0.00 | 0.00 | 83 | 1010.0 |
| 20260507133159 | 17 | 300 | 8.0 | 0.0 | 0.00 | 0.00 | 0.00 | 83 | 1010.0 |
| 20260507132658 | 18 | 115 | 12.9 | 20.9 | 0.00 | 0.00 | 0.00 | 82 | 1011.0 |
| 20260507132157 | 18 | 115 | 12.9 | 20.9 | 0.00 | 0.00 | 0.00 | 82 | 1011.0 |
| 20260507131656 | 18 | 115 | 12.9 | 20.9 | 0.00 | 0.00 | 0.00 | 80 | 1011.0 |
| 20260507131155 | 18 | 115 | 12.9 | 20.9 | 0.00 | 0.00 | 0.00 | 80 | 1011.0 |
| 20260507130654 | 18 | 115 | 12.9 | 20.9 | 0.00 | 0.00 | 0.00 | 79 | 1011.0 |
| 20260507130153 | 18 | 115 | 12.9 | 20.9 | 0.00 | 0.00 | 0.00 | 79 | 1011.0 |
| 20260507125652 | 18 | 115 | 12.9 | 20.9 | 0.00 | 0.00 | 0.00 | 74 | 1011.0 |
| 20260507125151 | 18 | 115 | 12.9 | 20.9 | 0.00 | 0.00 | 0.00 | 74 | 1011.0 |
| 20260507124651 | 19 | 115 | 12.9 | 20.9 | 0.00 | 0.00 | 0.00 | 74 | 1011.0 |
| 20260507124150 | 19 | 115 | 12.9 | 20.9 | 0.00 | 0.00 | 0.00 | 74 | 1011.0 |
| 20260507123649 | 19 | 115 | 12.9 | 20.9 | 0.00 | 0.00 | 0.00 | 73 | 1011.0 |
| 20260507123148 | 19 | 115 | 12.9 | 20.9 | 0.00 | 0.00 | 0.00 | 73 | 1011.0 |
| 20260507122647 | 19 | 115 | 12.9 | 20.9 | 0.00 | 0.00 | 0.00 | 73 | 1011.0 |
| 20260507122146 | 19 | 115 | 12.9 | 20.9 | 0.00 | 0.00 | 0.00 | 73 | 1011.0 |
| 20260507121645 | 19 | 115 | 12.9 | 20.9 | 0.00 | 0.00 | 0.00 | 73 | 1011.0 |
| 20260507121144 | 19 | 115 | 12.9 | 20.9 | 0.00 | 0.00 | 0.00 | 72 | 1011.0 |
| 20260507120644 | 19 | 115 | 12.9 | 20.9 | 0.00 | 0.00 | 0.00 | 73 | 1011.0 |
| 20260507120143 | 19 | 115 | 12.9 | 20.9 | 0.00 | 0.00 | 0.00 | 73 | 1011.0 |
| 20260507115642 | 19 | 115 | 12.9 | 20.9 | 0.00 | 0.00 | 0.00 | 73 | 1011.0 |
| 20260507115141 | 19 | 115 | 12.9 | 20.9 | 0.00 | 0.00 | 0.00 | 73 | 1011.0 |
| 20260507114640 | 19 | 115 | 12.9 | 20.9 | 0.00 | 0.00 | 0.00 | 73 | 1011.0 |
| 20260507114139 | 18 | 115 | 12.9 | 20.9 | 0.00 | 0.00 | 0.00 | 74 | 1011.0 |
| 20260507113638 | 18 | 115 | 12.9 | 20.9 | 0.00 | 0.00 | 0.00 | 74 | 1011.0 |
| 20260507113137 | 18 | 115 | 12.9 | 20.9 | 0.00 | 0.00 | 0.00 | 74 | 1011.0 |
| 20260507112637 | 18 | 115 | 12.9 | 20.9 | 0.00 | 0.00 | 0.00 | 74 | 1011.0 |
| 20260507112135 | 18 | 115 | 12.9 | 20.9 | 0.00 | 0.00 | 0.00 | 74 | 1011.0 |
| 20260507111635 | 18 | 111 | 11.3 | 17.7 | 0.00 | 0.00 | 0.00 | 75 | 1012.0 |
| 20260507111134 | 18 | 111 | 11.3 | 17.7 | 0.00 | 0.00 | 0.00 | 75 | 1012.0 |
| 20260507110633 | 18 | 126 | 8.0 | 17.7 | 0.00 | 0.00 | 0.00 | 76 | 1011.0 |
| 20260507110132 | 18 | 126 | 8.0 | 17.7 | 0.00 | 0.00 | 0.00 | 76 | 1011.0 |
| 20260507105631 | 18 | 68 | 12.9 | 24.1 | 0.00 | 0.00 | 0.00 | 74 | 1011.0 |
| 20260507105130 | 18 | 68 | 12.9 | 24.1 | 0.00 | 0.00 | 0.00 | 74 | 1011.0 |
| 20260507104629 | 18 | 68 | 12.9 | 24.1 | 0.00 | 0.00 | 0.00 | 73 | 1011.0 |
| 20260507104128 | 18 | 68 | 12.9 | 24.1 | 0.00 | 0.00 | 0.00 | 73 | 1011.0 |
| 20260507103627 | 18 | 68 | 12.9 | 24.1 | 0.00 | 0.00 | 0.00 | 73 | 1011.0 |
| 20260507103127 | 18 | 68 | 12.9 | 24.1 | 0.00 | 0.00 | 0.00 | 73 | 1011.0 |
| 20260507102626 | 18 | 68 | 12.9 | 24.1 | 0.00 | 0.00 | 0.00 | 74 | 1011.0 |
| 20260507102125 | 18 | 68 | 12.9 | 24.1 | 0.00 | 0.00 | 0.00 | 74 | 1011.0 |
| 20260507101624 | 18 | 68 | 12.9 | 24.1 | 0.00 | 0.00 | 0.00 | 73 | 1011.0 |
| 20260507101123 | 18 | 68 | 12.9 | 24.1 | 0.00 | 0.00 | 0.00 | 73 | 1011.0 |
| 20260507100622 | 18 | 68 | 12.9 | 24.1 | 0.00 | 0.00 | 0.00 | 73 | 1011.0 |
| 20260507100121 | 18 | 68 | 12.9 | 24.1 | 0.00 | 0.00 | 0.00 | 73 | 1011.0 |
| 20260507095620 | 18 | 105 | 11.3 | 20.9 | 0.00 | 0.00 | 0.00 | 74 | 1011.0 |
| 20260507095119 | 18 | 105 | 11.3 | 20.9 | 0.00 | 0.00 | 0.00 | 74 | 1011.0 |
| 20260507094619 | 18 | 105 | 11.3 | 20.9 | 0.00 | 0.00 | 0.00 | 75 | 1011.0 |
| 20260507094118 | 18 | 105 | 11.3 | 20.9 | 0.00 | 0.00 | 0.00 | 75 | 1011.0 |
| 20260507093617 | 18 | 105 | 11.3 | 20.9 | 0.00 | 0.00 | 0.00 | 76 | 1011.0 |
| 20260507093116 | 18 | 105 | 11.3 | 20.9 | 0.00 | 0.00 | 0.00 | 76 | 1011.0 |
| 20260507092615 | 18 | 105 | 11.3 | 20.9 | 0.00 | 0.00 | 0.00 | 77 | 1012.0 |
| 20260507092114 | 18 | 105 | 11.3 | 20.9 | 0.00 | 0.00 | 0.00 | 77 | 1012.0 |
| 20260507091613 | 17 | 105 | 11.3 | 20.9 | 0.00 | 0.00 | 0.00 | 78 | 1012.0 |
| 20260507091112 | 17 | 105 | 11.3 | 20.9 | 0.00 | 0.00 | 0.00 | 78 | 1012.0 |
| 20260507090612 | 17 | 105 | 11.3 | 20.9 | 0.00 | 0.00 | 0.00 | 78 | 1012.0 |
| 20260507090111 | 17 | 3 | 4.8 | 8.0 | 0.00 | 0.00 | 0.00 | 79 | 1012.0 |
| 20260507085610 | 17 | 3 | 4.8 | 8.0 | 0.00 | 0.00 | 0.00 | 79 | 1012.0 |
| 20260507085109 | 17 | 3 | 4.8 | 8.0 | 0.00 | 0.00 | 0.00 | 80 | 1012.0 |
| 20260507084608 | 17 | 3 | 4.8 | 8.0 | 0.00 | 0.00 | 0.00 | 80 | 1012.0 |
| 20260507084107 | 17 | 3 | 4.8 | 8.0 | 0.00 | 0.00 | 0.00 | 80 | 1012.0 |
| 20260507083606 | 17 | 3 | 4.8 | 8.0 | 0.00 | 0.00 | 0.00 | 79 | 1012.0 |
| 20260507083105 | 17 | 3 | 4.8 | 8.0 | 0.00 | 0.00 | 0.00 | 78 | 1012.0 |
| 20260507082604 | 17 | 3 | 4.8 | 8.0 | 0.00 | 0.00 | 0.00 | 78 | 1012.0 |
| 20260507082104 | 17 | 3 | 4.8 | 8.0 | 0.00 | 0.00 | 0.00 | 77 | 1012.0 |
| 20260507081603 | 17 | 3 | 4.8 | 8.0 | 0.00 | 0.00 | 0.00 | 77 | 1012.0 |
| 20260507081102 | 17 | 3 | 4.8 | 8.0 | 0.00 | 0.00 | 0.00 | 77 | 1012.0 |